This is the latest recevied weather packets stored in our database for station/object KB4MOX. If no packets are shown the sender has not sent any weather packets the latest 10 day(s).
| Time | Temp. | Humidity | Pressure | Rain* | Wind** | Luminosity | Snow |
|---|---|---|---|---|---|---|---|
| 1777667813 | 20° C | 63% | 1012.8 hPa | 0 mm | - | 155 W/m² | - |
| 1777667511 | 20° C | 62% | 1012.8 hPa | 0 mm | - | 142 W/m² | - |
| 1777667208 | 20.56° C | 62% | 1012.6 hPa | 0 mm | - | 164 W/m² | - |
| 1777666905 | 20.56° C | 62% | 1012.6 hPa | 0 mm | - | 185 W/m² | - |
| 1777666601 | 20.56° C | 62% | 1012.7 hPa | 0 mm | - | 174 W/m² | - |
| 1777666298 | 20° C | 63% | 1012.9 hPa | 0 mm | - | 143 W/m² | - |
| 1777665995 | 20° C | 63% | 1012.6 hPa | 0 mm | - | 118 W/m² | - |
| 1777665693 | 20.56° C | 61% | 1012.7 hPa | 0 mm | - | 170 W/m² | - |
| 1777665390 | 20.56° C | 62% | 1012.7 hPa | 0 mm | - | 189 W/m² | - |
| 1777665085 | 20.56° C | 63% | 1012.7 hPa | 0 mm | - | 224 W/m² | - |
| 1777664781 | 20° C | 63% | 1013 hPa | 0 mm | - | 271 W/m² | - |
| 1777664476 | 20° C | 62% | 1012.9 hPa | 0 mm | - | 265 W/m² | - |
| 1777664174 | 20° C | 63% | 1012.8 hPa | 0 mm | - | 325 W/m² | - |
| 1777663873 | 20.56° C | 61% | 1012.9 hPa | 0 mm | - | 317 W/m² | - |
| 1777663569 | 20° C | 63% | 1012.8 hPa | 0 mm | - | 697 W/m² | - |
| 1777663267 | 20° C | 62% | 1013.1 hPa | 0 mm | - | 328 W/m² | - |
| 1777662964 | 20° C | 65% | 1013.2 hPa | 0 mm | - | 310 W/m² | - |
| 1777662661 | 20° C | 65% | 1013.2 hPa | 0 mm | - | 226 W/m² | - |
| 1777662357 | 20° C | 63% | 1013.3 hPa | 0 mm | - | 211 W/m² | - |
| 1777662052 | 20° C | 66% | 1013.4 hPa | 0 mm | - | 350 W/m² | - |
| 1777661749 | 19.44° C | 66% | 1013.7 hPa | 0 mm | - | 249 W/m² | - |
| 1777661445 | 20° C | 67% | 1013.5 hPa | 0 mm | - | 231 W/m² | - |
| 1777661141 | 20° C | 66% | 1013.7 hPa | 0 mm | - | 187 W/m² | - |
| 1777660841 | 20° C | 64% | 1013.5 hPa | 0 mm | - | 200 W/m² | - |
| 1777660538 | 20° C | 63% | 1013.8 hPa | 0 mm | - | 163 W/m² | - |
* Rain latest hour (hover to see other rain measurements)
** Current wind speed in m/s (hover to see current wind gust speed)